Airfield :







YOU CAN JOIN US ON...

 
LOGIN :

Register | Disclaimer

   EN    FR    IT 

 









Legend :    VFR   Marginal VFR   IFR   Intensive IFR   Very Intensive IFR
Visi :
Ceiling :
>= 8 km
>= 3000ft
5 to 8 km
1000 to 3000 ft
1500m to 5 km
500 to 1000 ft
800 to 1500m
200 to 500 ft
< 800m
< 200 ft
Symbols :   Thunderstorms  Fog  Heavy snow  Heavy precipitations  Wind > 20 kt







- Airport Elevation : 333 ft


KWVL - Waterville Robert Lafleur

CURRENT METAR :
  • 200156Z AUTO VRB06KT 10SM BKN009 15/13 A2980 RMK AO2 SLP118 T01500133

EXPIRED METARs :
  • 200139Z AUTO 20005KT 10SM OVC009 16/13 A2981 RMK AO2
  • 200118Z AUTO VRB06KT 10SM BKN011 BKN110 16/13 A2981 RMK AO2
  • 200056Z AUTO 20005KT 10SM SCT110 16/13 A2981 RMK AO2 SLP120 T01610133
  • 192356Z AUTO VRB05KT 10SM BKN110 17/14 A2980 RMK AO2 SLP119 T01720139 10256 20172 53005

TAF N/A
KZBW FIR / North America



MET'MAP, your aeronautical weather chart ! - Copyright ORBIFLY December 2007 - Disclaimer

ORBIFLY MET'MAP TEAM :

Programming & Development : Alexandra Zaïnal
Concept & Development : Baudouin d'Aumeries
Co-Development & Prog : Marc-Olivier Méhu
Technical & hardware support : Manuel Goepfert

Contact : metmap@orbifly.com




SOURCES & CREDITS :

   NOAA